When you browse on this site, cookies collect data to enhance your experience and personalize the content and advertising you see.
Visit our Privacy Policy to learn more. By continuing to use the site, you agree to this use of cookies and data.
  • En España
  • Lista de países
  • Para 7 días
  • Temperatura del agua
  • Mapa Satelital
  • El tiempo en el mapa
  • Informadores
  • user-avatar
    Iniciar sesión

    Tiempo cada hora Gmyri

    Hoy, 17 Julio, Miércoles

    Tiempo Temperatura Precipitaciones Viento Presión Humedad
    00:00 +11°C° 0 mm 1 mps 735 mmHg 89%
    01:00 +11°C° 0 mm 1 mps 735 mmHg 89%
    02:00 +10°C° 0 mm 0 mps 735 mmHg 90%
    03:00 +12°C° 0 mm 1 mps 735 mmHg 89%
    04:00 +12°C° 0 mm 2 mps 735 mmHg 89%
    05:00 +12°C° 0 mm 2 mps 734 mmHg 89%
    06:00 +14°C° 0.1 mm 2 mps 734 mmHg 87%
    07:00 +15°C° 0.1 mm 1 mps 734 mmHg 86%
    08:00 +14°C° 0 mm 0 mps 734 mmHg 84%
    09:00 +16°C° 0.4 mm 1 mps 734 mmHg 83%
    10:00 +17°C° 0.4 mm 2 mps 734 mmHg 83%
    11:00 +17°C° 0.4 mm 2 mps 734 mmHg 82%
    12:00 +18°C° 0.2 mm 2 mps 734 mmHg 81%
    13:00 +18°C° 0.2 mm 2 mps 733 mmHg 79%
    14:00 +18°C° 0.2 mm 2 mps 733 mmHg 78%
    15:00 +18°C° 0 mm 2 mps 733 mmHg 78%
    16:00 +19°C° 0 mm 1 mps 733 mmHg 77%
    17:00 +19°C° 0 mm 1 mps 733 mmHg 77%
    18:00 +18°C° 0.2 mm 1 mps 733 mmHg 79%
    19:00 +16°C° 0.2 mm 1 mps 733 mmHg 81%
    20:00 +15°C° 0.2 mm 1 mps 733 mmHg 83%
    21:00 +15°C° 0.1 mm 1 mps 733 mmHg 84%
    22:00 +15°C° 0.1 mm 1 mps 733 mmHg 84%
    23:00 +14°C° 0.1 mm 1 mps 732 mmHg 85%

    Mañana, 18 Julio, Jueves

    Tiempo Temperatura Precipitaciones Viento Presión Humedad
    00:00 +14°C° 0.1 mm 1 mps 732 mmHg 87%
    01:00 +14°C° 0.1 mm 1 mps 732 mmHg 88%
    02:00 +13°C° 0.1 mm 2 mps 732 mmHg 90%
    03:00 +13°C° 0.1 mm 1 mps 732 mmHg 91%
    04:00 +13°C° 0.1 mm 1 mps 732 mmHg 92%
    05:00 +12°C° 0.1 mm 0 mps 732 mmHg 93%
    06:00 +14°C° 0.3 mm 1 mps 732 mmHg 91%
    07:00 +15°C° 0.3 mm 1 mps 732 mmHg 90%
    08:00 +16°C° 0.3 mm 2 mps 732 mmHg 89%
    09:00 +16°C° 0.7 mm 3 mps 732 mmHg 90%
    10:00 +16°C° 0.7 mm 3 mps 732 mmHg 91%
    11:00 +15°C° 0.7 mm 4 mps 732 mmHg 92%
    12:00 +14°C° 0.2 mm 4 mps 732 mmHg 91%
    13:00 +14°C° 0.2 mm 4 mps 732 mmHg 91%
    14:00 +14°C° 0.2 mm 4 mps 732 mmHg 91%
    15:00 +14°C° 0.2 mm 4 mps 732 mmHg 91%
    16:00 +15°C° 0.2 mm 4 mps 732 mmHg 92%
    17:00 +16°C° 0.2 mm 3 mps 733 mmHg 92%
    18:00 +14°C° 0.3 mm 3 mps 733 mmHg 94%
    19:00 +14°C° 0.3 mm 3 mps 733 mmHg 95%
    20:00 +13°C° 0.3 mm 3 mps 733 mmHg 97%
    21:00 +13°C° 0.1 mm 3 mps 733 mmHg 97%
    22:00 +13°C° 0.1 mm 3 mps 733 mmHg 97%
    23:00 +13°C° 0.1 mm 3 mps 733 mmHg 96%

    Pasado mañana, 19 Julio, Viernes

    Tiempo Temperatura Precipitaciones Viento Presión Humedad
    00:00 +13°C° 0.3 mm 4 mps 733 mmHg 97%
    01:00 +13°C° 0.3 mm 4 mps 733 mmHg 97%
    02:00 +14°C° 0.3 mm 5 mps 733 mmHg 97%
    03:00 +14°C° 0.2 mm 5 mps 733 mmHg 97%
    04:00 +14°C° 0.2 mm 5 mps 734 mmHg 97%
    05:00 +14°C° 0.2 mm 5 mps 734 mmHg 96%
    06:00 +14°C° 0 mm 6 mps 734 mmHg 95%
    07:00 +14°C° 0 mm 6 mps 734 mmHg 94%
    08:00 +14°C° 0 mm 6 mps 735 mmHg 93%
    09:00 +15°C° 0.1 mm 6 mps 735 mmHg 91%
    10:00 +15°C° 0.1 mm 6 mps 736 mmHg 89%
    11:00 +16°C° 0.1 mm 6 mps 736 mmHg 86%
    12:00 +16°C° 0.6 mm 6 mps 736 mmHg 85%
    13:00 +17°C° 0.6 mm 6 mps 736 mmHg 84%
    14:00 +18°C° 0.6 mm 7 mps 737 mmHg 83%
    15:00 +17°C° 0.4 mm 6 mps 737 mmHg 83%
    16:00 +17°C° 0.4 mm 6 mps 737 mmHg 83%
    17:00 +17°C° 0.4 mm 5 mps 737 mmHg 84%
    18:00 +16°C° 0 mm 5 mps 738 mmHg 86%
    19:00 +15°C° 0 mm 4 mps 738 mmHg 89%
    20:00 +14°C° 0 mm 3 mps 738 mmHg 92%
    21:00 +14°C° 0 mm 3 mps 738 mmHg 92%
    22:00 +13°C° 0 mm 4 mps 739 mmHg 92%
    23:00 +13°C° 0 mm 4 mps 739 mmHg 93%

    20 Julio, Sábado

    Tiempo Temperatura Precipitaciones Viento Presión Humedad
    00:00 +13°C° 0 mm 4 mps 739 mmHg 93%
    01:00 +12°C° 0 mm 4 mps 739 mmHg 93%
    02:00 +12°C° 0 mm 4 mps 739 mmHg 94%
    03:00 +12°C° 0 mm 4 mps 739 mmHg 94%
    04:00 +12°C° 0 mm 4 mps 740 mmHg 94%
    05:00 +12°C° 0 mm 3 mps 740 mmHg 95%
    06:00 +13°C° 0 mm 4 mps 740 mmHg 90%
    07:00 +15°C° 0 mm 4 mps 740 mmHg 85%
    08:00 +17°C° 0 mm 4 mps 741 mmHg 81%
    09:00 +17°C° 0.2 mm 5 mps 741 mmHg 79%
    10:00 +19°C° 0.2 mm 5 mps 741 mmHg 76%
    11:00 +20°C° 0.2 mm 6 mps 742 mmHg 74%
    12:00 +20°C° 0.5 mm 6 mps 742 mmHg 74%
    13:00 +21°C° 0.5 mm 5 mps 742 mmHg 74%
    14:00 +21°C° 0.5 mm 5 mps 742 mmHg 74%
    15:00 +20°C° 0.6 mm 5 mps 742 mmHg 77%
    16:00 +20°C° 0.6 mm 5 mps 742 mmHg 80%
    17:00 +20°C° 0.6 mm 4 mps 742 mmHg 83%
    18:00 +19°C° 0.1 mm 3 mps 742 mmHg 86%
    19:00 +17°C° 0.1 mm 3 mps 742 mmHg 89%
    20:00 +16°C° 0.1 mm 2 mps 743 mmHg 92%
    21:00 +16°C° 0 mm 2 mps 743 mmHg 92%
    22:00 +15°C° 0 mm 2 mps 743 mmHg 93%
    23:00 +14°C° 0 mm 2 mps 743 mmHg 93%

    21 Julio, Domingo

    Tiempo Temperatura Precipitaciones Viento Presión Humedad
    00:00 +14°C° 0 mm 2 mps 743 mmHg 94%
    01:00 +14°C° 0 mm 2 mps 743 mmHg 94%
    02:00 +13°C° 0 mm 2 mps 743 mmHg 95%
    03:00 +13°C° 0 mm 2 mps 743 mmHg 95%
    04:00 +13°C° 0 mm 2 mps 744 mmHg 96%
    05:00 +13°C° 0 mm 2 mps 744 mmHg 96%
    06:00 +15°C° 0 mm 2 mps 744 mmHg 92%
    07:00 +16°C° 0 mm 2 mps 744 mmHg 88%
    08:00 +18°C° 0 mm 2 mps 744 mmHg 84%
    09:00 +19°C° 0 mm 3 mps 744 mmHg 78%
    10:00 +20°C° 0 mm 3 mps 744 mmHg 72%
    11:00 +21°C° 0 mm 3 mps 744 mmHg 65%
    12:00 +21°C° 0 mm 3 mps 744 mmHg 65%
    13:00 +22°C° 0 mm 3 mps 744 mmHg 64%
    14:00 +22°C° 0 mm 4 mps 744 mmHg 64%
    15:00 +22°C° 0 mm 4 mps 744 mmHg 67%
    16:00 +22°C° 0 mm 3 mps 744 mmHg 69%
    17:00 +22°C° 0 mm 3 mps 744 mmHg 72%
    18:00 +20°C° 0 mm 3 mps 744 mmHg 77%
    19:00 +19°C° 0 mm 2 mps 744 mmHg 82%
    20:00 +18°C° 0 mm 1 mps 744 mmHg 87%
    21:00 +16°C° 0 mm 1 mps 744 mmHg 88%
    22:00 +15°C° 0 mm 1 mps 744 mmHg 89%
    23:00 +15°C° 0 mm 1 mps 744 mmHg 89%

    22 Julio, Lunes

    Tiempo Temperatura Precipitaciones Viento Presión Humedad
    00:00 +14°C° 0 mm 1 mps 744 mmHg 90%
    01:00 +14°C° 0 mm 1 mps 744 mmHg 90%
    02:00 +13°C° 0 mm 1 mps 744 mmHg 91%
    03:00 +13°C° 0 mm 1 mps 744 mmHg 91%
    04:00 +13°C° 0 mm 1 mps 744 mmHg 92%
    05:00 +13°C° 0 mm 1 mps 744 mmHg 93%
    06:00 +15°C° 0 mm 1 mps 744 mmHg 88%
    07:00 +18°C° 0 mm 1 mps 744 mmHg 83%
    08:00 +19°C° 0 mm 2 mps 744 mmHg 78%
    09:00 +20°C° 0 mm 2 mps 744 mmHg 73%
    10:00 +22°C° 0 mm 1 mps 744 mmHg 68%
    11:00 +23°C° 0 mm 1 mps 744 mmHg 63%
    12:00 +24°C° 0 mm 1 mps 744 mmHg 60%
    13:00 +24°C° 0 mm 1 mps 744 mmHg 57%
    14:00 +25°C° 0 mm 1 mps 743 mmHg 54%
    15:00 +25°C° 0 mm 1 mps 743 mmHg 57%
    16:00 +24°C° 0 mm 1 mps 743 mmHg 60%
    17:00 +24°C° 0 mm 1 mps 743 mmHg 63%
    18:00 +21°C° 0 mm 2 mps 743 mmHg 66%
    19:00 +19°C° 0 mm 2 mps 743 mmHg 70%
    20:00 +17°C° 0 mm 2 mps 743 mmHg 73%
    21:00 +16°C° 0 mm 2 mps 743 mmHg 76%
    22:00 +15°C° 0 mm 2 mps 743 mmHg 79%
    23:00 +15°C° 0 mm 2 mps 743 mmHg 81%
    Mostrar más